Weather History for Evansville, IN

Change the Weather History Date:

Saturday, May 11, 2013

  Actual Average Record
Temperature  
Mean Temperature 59 °F 64 °F  
Max Temperature 69 °F 75 °F 88 °F (2000)
Min Temperature 48 °F 53 °F 36 °F (1945)
Degree Days  
Heating Degree Days 6 3  
Month to date heating degree days 38 46  
Since 1 July heating degree days 4486 4501  
Cooling Degree Days 0 3  
Month to date cooling degree days 12 20  
Year to date cooling degree days 46 47  
Growing Degree Days 11 (Base 50)    
Moisture  
Dew Point 48 °F    
Average Humidity 68    
Maximum Humidity 93    
Minimum Humidity 42    
Precipitation  
Precipitation 0.05 in 0.18 in 3.12 in (1918)
Month to date precipitation 2.55 1.90  
Year to date precipitation 20.02 16.78  
Snow  
Snow 0.00 in 0.00 in 0.00 in (2002)
Month to date snowfall 0.0 0.0  
Since 1 July snowfall 12.3 11.8  
Snow Depth 0.00 in    
Sea Level Pressure  
Sea Level Pressure 29.99 in    
Wind  
Wind Speed 8 mph (NW)    
Max Wind Speed 20 mph    
Max Gust Speed 29 mph    
Visibility 9 miles    
Events Rain    
T = Trace of Precipitation, MM = Missing Value Source: NWS Daily Summary

Daily Weather History Graph

Daily Weather History Graph

Search for Another Location

Airport:

Trip Planner

Search our weather history database for the weather conditions in past years. The results will help you decide how hot, cold, wet, or windy it might be!

Date:

Astronomy

May. 11, 2013 Rise Set
Actual Time 5:42 AM CDT 7:50 PM CDT
Civil Twilight 5:13 AM CDT 8:19 PM CDT
Nautical Twilight 4:38 AM CDT 8:55 PM CDT
Astronomical Twilight 3:59 AM CDT 9:34 PM CDT
Moon 6:51 AM CDT (5/11) 9:29 PM CDT (5/11)
Length of Visible Light 15h 05m
Length of Day
14h 07m
Waxing Crescent, 3% of the Moon is Illuminated
May 11
Waxing Crescent
May 17
First Quarter
May 24
Full
May 31
Last Quarter
Jun 8
New

Hourly Weather History & Observations

Time (CDT) Temp. Dew Point Humidity Pressure Visibility Wind Dir Wind Speed Gust Speed Precip Events Conditions
12:08 AM 60.8 °F 53.6 °F 77% 29.95 in 10.0 mi NNW 4.6 mph - N/A   Overcast
12:54 AM 57.9 °F 52.0 °F 81% 29.96 in 10.0 mi WNW 6.9 mph - N/A   Mostly Cloudy
1:54 AM 57.0 °F 52.0 °F 83% 29.95 in 10.0 mi NW 8.1 mph - N/A   Overcast
2:05 AM 57.2 °F 51.8 °F 82% 29.95 in 10.0 mi NW 9.2 mph - N/A   Overcast
2:54 AM 57.0 °F 51.1 °F 81% 29.96 in 10.0 mi NW 6.9 mph - N/A   Overcast
3:12 AM 57.2 °F 51.8 °F 82% 29.96 in 10.0 mi NW 10.4 mph - N/A   Overcast
3:54 AM 55.9 °F 51.1 °F 84% 29.95 in 10.0 mi NW 9.2 mph - N/A   Overcast
4:43 AM 55.4 °F 51.8 °F 88% 29.96 in 10.0 mi NW 4.6 mph - N/A   Overcast
4:54 AM 55.9 °F 51.1 °F 84% 29.96 in 10.0 mi NW 5.8 mph - N/A   Overcast
5:54 AM 54.0 °F 51.1 °F 90% 29.96 in 6.0 mi NNW 5.8 mph - 0.00 in Rain Light Rain
6:02 AM 53.6 °F 51.8 °F 94% 29.96 in 6.0 mi North 8.1 mph - 0.00 in Rain Light Rain
6:20 AM 53.6 °F 50.0 °F 88% 29.96 in 6.0 mi Variable 5.8 mph - 0.00 in   Overcast
6:54 AM 54.0 °F 50.0 °F 86% 29.97 in 5.0 mi North 4.6 mph - 0.00 in   Overcast
7:54 AM 54.0 °F 51.1 °F 90% 29.99 in 4.0 mi North 3.5 mph - N/A   Overcast
8:05 AM 53.6 °F 50.0 °F 88% 30.00 in 5.0 mi North 4.6 mph - N/A   Overcast
8:54 AM 55.9 °F 50.0 °F 80% 29.99 in 8.0 mi NNW 8.1 mph - N/A   Overcast
9:54 AM 55.9 °F 48.9 °F 77% 29.99 in 9.0 mi NW 6.9 mph - N/A   Overcast
10:54 AM 57.0 °F 48.9 °F 74% 30.00 in 10.0 mi NW 9.2 mph - N/A   Overcast
11:54 AM 60.1 °F 48.9 °F 67% 30.01 in 10.0 mi NW 6.9 mph - N/A   Overcast
12:54 PM 61.0 °F 50.0 °F 67% 30.00 in 10.0 mi West 9.2 mph - N/A   Overcast
1:46 PM 64.4 °F 48.2 °F 56% 29.99 in 10.0 mi Calm Calm - N/A   Scattered Clouds
1:54 PM 64.9 °F 51.1 °F 61% 29.99 in 10.0 mi West 4.6 mph - N/A   Partly Cloudy
2:54 PM 66.0 °F 51.1 °F 59% 29.96 in 10.0 mi WSW 10.4 mph - N/A   Partly Cloudy
3:54 PM 69.1 °F 51.1 °F 53% 29.96 in 10.0 mi WSW 9.2 mph - N/A   Scattered Clouds
4:54 PM 69.1 °F 51.1 °F 53% 29.95 in 10.0 mi SW 11.5 mph - N/A   Mostly Cloudy
5:54 PM 63.0 °F 55.0 °F 75% 29.96 in 10.0 mi West 3.5 mph - 0.05 in   Overcast
6:54 PM 64.0 °F 43.0 °F 46% 29.97 in 10.0 mi NNW 13.8 mph 28.8 mph N/A   Clear
7:54 PM 60.1 °F 37.0 °F 42% 30.01 in 10.0 mi NW 9.2 mph 18.4 mph N/A   Clear
8:54 PM 57.2 °F 35.6 °F 44% 30.05 in 10.0 mi NNW 11.5 mph 18.4 mph N/A   Clear
9:54 PM 55.0 °F 36.0 °F 49% 30.09 in 10.0 mi NW 9.2 mph - N/A   Clear
10:54 PM 53.1 °F 32.0 °F 45% 30.11 in 10.0 mi NNW 8.1 mph 17.3 mph N/A   Clear
11:54 PM 51.1 °F 32.0 °F 48% 30.12 in 10.0 mi NNW 6.9 mph - N/A   Clear